Flag Weather past 2 weeks in Paris, France

Now
55 °F

Clear.


Feels Like: 53 °F
Forecast: 42 / 50 °F
Wind: 10 mph from East

Location: Villacoublay

Current Time: Nov 28, 2014 at 12:23:15 PM

Latest Report: Nov 28, 2014 at 12:00 PM


Visibility: N/A

Pressure: 29.53 "Hg

Humidity: 72%

Dew point: 46 °F

Location of ParisLocation

Historic Weather in Paris — Graph

°F

Paris temperature yesterday

Maximum temperature yesterday: 52 °F (at 1:00 PM)
Minimum temperature yesterday: 45 °F (at 2:00 AM)
Average temperature yesterday: 49 °F

Past Weeks' High & Low Weather Summary

 TemperatureHumidityPressure
High57 °F (Nov 13, 2:00 PM)100% (Nov 14, 12:30 PM)30.24 "Hg (Nov 14, 12:30 PM)
Low43 °F (Nov 19, 12:00 AM)67% (Nov 13, 2:00 PM)29.45 "Hg (Nov 16, 1:30 PM)
Average49 °F91%29.85 "Hg
* Reported Nov 13 11:00 AM — Nov 28 11:00 AM, Paris, Weather by CustomWeather, © 2014

Note: Actual official high and low records may vary slightly from our data, if they occured in-between our weather recording intervals... More about our weather records

Advertising

Paris weather history for previous 24 hours

 ConditionsComfort  
Time TempWeatherWind HumidityBarometerVisibility
11:00 AM
Nov 28
52 °FClear.9 mph82%29.53 "HgN/A
10:30 AM52 °FClear.7 mph82%29.53 "HgN/A
10:00 AM52 °FClear.8 mph82%29.53 "HgN/A
9:30 AM50 °FClear.8 mph82%29.53 "HgN/A
9:00 AM50 °FClear.9 mph82%29.50 "HgN/A
8:30 AM50 °FClear.10 mph82%29.50 "HgN/A
8:00 AM50 °FClear.12 mph82%29.50 "HgN/A
7:30 AM50 °FClear.10 mph88%29.50 "HgN/A
7:00 AM50 °FClear.9 mph88%29.50 "HgN/A
6:30 AM50 °FClear.7 mph88%29.50 "HgN/A
6:00 AM50 °FClear.7 mph88%29.50 "HgN/A
5:30 AM50 °FClear.7 mph88%29.50 "HgN/A
4:30 AM48 °FClear.8 mph94%29.50 "HgN/A
4:00 AM48 °FClear.8 mph94%29.50 "HgN/A
3:30 AM48 °FClear.7 mph100%29.53 "Hg6 mi
3:00 AM48 °FPassing clouds.8 mph100%29.53 "Hg4 mi
2:30 AM50 °FFog.6 mph94%29.53 "Hg2 mi
2:00 AM50 °FFog.8 mph94%29.53 "Hg0 mi
1:30 AM50 °FFog.7 mph94%29.53 "Hg0 mi
1:00 AM50 °FFog.7 mph100%29.56 "Hg1 mi
12:30 AM50 °FFog.10 mph100%29.56 "Hg1 mi
12:00 AM50 °FMostly cloudy.8 mph100%29.56 "Hg5 mi
11:30 PM
Nov 27
50 °FPassing clouds.6 mph94%29.56 "Hg5 mi
11:00 PM50 °FPassing clouds.7 mph94%29.56 "Hg4 mi
10:30 PM50 °FPassing clouds.8 mph94%29.56 "Hg6 mi
10:00 PM50 °FLow clouds.6 mph94%29.59 "HgN/A
9:30 PM50 °FLow clouds.6 mph94%29.59 "HgN/A
9:00 PM50 °FLow clouds.6 mph94%29.59 "HgN/A
8:30 PM52 °FLow clouds.6 mph94%29.59 "HgN/A
8:00 PM52 °FMostly cloudy.5 mph94%29.59 "HgN/A
7:30 PM52 °FMostly cloudy.6 mph94%29.59 "HgN/A
7:00 PM52 °FMostly cloudy.6 mph94%29.59 "HgN/A
6:30 PM52 °FMostly cloudy.6 mph94%29.62 "HgN/A
6:00 PM52 °FLow clouds.5 mph94%29.59 "HgN/A
5:30 PM52 °FLow clouds.5 mph94%29.59 "HgN/A
5:00 PM52 °FOvercast.3 mph88%29.59 "HgN/A
4:30 PM52 °FOvercast.2 mph88%29.59 "HgN/A
4:00 PM52 °FOvercast.3 mph88%29.62 "HgN/A
3:30 PM52 °FOvercast.5 mph88%29.62 "HgN/A
3:00 PM52 °FMore clouds than sun.3 mph94%29.59 "HgN/A
2:30 PM52 °FMostly cloudy.6 mph94%29.62 "HgN/A
2:00 PM52 °FMore clouds than sun.3 mph94%29.62 "HgN/A
1:30 PM52 °FLow clouds.6 mph94%29.62 "HgN/A
1:00 PM52 °FFog.6 mph94%29.65 "Hg4 mi
12:30 PM50 °FFog.5 mph100%29.65 "Hg0 mi
12:00 PM50 °FFog.3 mph100%29.65 "Hg0 mi
Weather by CustomWeather, © 2014

See weather overviewHow to use our weather pages